TimeCDT,TemperatureF,Dew PointF,Humidity,Sea Level PressureIn,VisibilityMPH,Wind Direction,Wind SpeedMPH,Gust SpeedMPH,PrecipitationIn,Events,Conditions,WindDirDegrees,DateUTC
12:15 AM,57.2,56.5,97,29.83,3.0,West,5.8,-,N/A,,Scattered Clouds,280,2014-04-22 05:15:00
12:35 AM,57.7,56.8,97,29.83,4.0,West,6.9,-,N/A,,Mostly Cloudy,270,2014-04-22 05:35:00
12:55 AM,57.6,56.5,96,29.83,4.0,West,4.6,-,N/A,,Scattered Clouds,270,2014-04-22 05:55:00
1:15 AM,57.2,55.8,95,29.84,5.0,WNW,9.2,-,N/A,,Scattered Clouds,290,2014-04-22 06:15:00
1:35 AM,57.4,52.7,84,29.84,10.0,NW,8.1,-,N/A,,Mostly Cloudy,320,2014-04-22 06:35:00
1:55 AM,56.8,50.5,79,29.84,10.0,NNW,6.9,-,N/A,,Scattered Clouds,330,2014-04-22 06:55:00
2:15 AM,56.5,48.6,75,29.85,10.0,NNW,6.9,-,N/A,,Scattered Clouds,330,2014-04-22 07:15:00
2:35 AM,55.4,46.4,72,29.85,10.0,NNW,6.9,-,N/A,,Clear,340,2014-04-22 07:35:00
2:55 AM,54.1,44.1,69,29.85,10.0,NNW,8.1,-,N/A,,Clear,340,2014-04-22 07:55:00
3:15 AM,53.4,42.8,67,29.86,10.0,NNW,8.1,-,N/A,,Clear,340,2014-04-22 08:15:00
3:35 AM,52.7,41.9,67,29.86,10.0,NNW,10.4,-,N/A,,Clear,340,2014-04-22 08:35:00
3:55 AM,51.8,41.4,68,29.87,10.0,NNW,8.1,-,N/A,,Clear,340,2014-04-22 08:55:00
4:15 AM,50.4,41.2,71,29.88,10.0,NNW,6.9,-,N/A,,Clear,340,2014-04-22 09:15:00
4:35 AM,50.0,40.3,69,29.90,10.0,NNW,10.4,-,N/A,,Clear,340,2014-04-22 09:35:00
4:55 AM,50.0,39.2,66,29.91,10.0,North,11.5,17.3,N/A,,Clear,350,2014-04-22 09:55:00
5:15 AM,48.2,38.5,69,29.92,10.0,North,6.9,-,N/A,,Clear,360,2014-04-22 10:15:00
5:35 AM,45.7,38.8,77,29.93,10.0,NE,5.8,-,N/A,,Clear,50,2014-04-22 10:35:00
5:55 AM,45.0,38.7,79,29.94,10.0,NNE,3.5,-,N/A,,Clear,30,2014-04-22 10:55:00
6:15 AM,44.6,38.3,79,29.95,10.0,North,3.5,-,N/A,,Clear,10,2014-04-22 11:15:00
6:35 AM,46.9,35.8,65,29.96,10.0,North,15.0,20.7,N/A,,Clear,350,2014-04-22 11:35:00
6:55 AM,46.9,35.6,65,29.96,10.0,North,10.4,18.4,N/A,,Clear,360,2014-04-22 11:55:00
7:15 AM,46.8,34.9,63,29.97,10.0,North,11.5,18.4,N/A,,Clear,360,2014-04-22 12:15:00
7:35 AM,46.6,34.9,64,29.98,10.0,North,12.7,19.6,N/A,,Clear,350,2014-04-22 12:35:00
7:55 AM,46.6,33.4,60,29.98,10.0,NNW,12.7,24.2,N/A,,Clear,340,2014-04-22 12:55:00
8:15 AM,46.8,33.4,60,29.98,10.0,NNW,13.8,19.6,N/A,,Clear,340,2014-04-22 13:15:00
8:35 AM,46.8,33.6,60,29.98,10.0,North,13.8,18.4,N/A,,Clear,350,2014-04-22 13:35:00
8:55 AM,47.3,32.9,57,29.98,10.0,North,12.7,17.3,N/A,,Clear,360,2014-04-22 13:55:00
9:15 AM,47.7,32.7,56,29.98,10.0,NNW,13.8,18.4,N/A,,Clear,340,2014-04-22 14:15:00
9:35 AM,48.4,32.0,53,29.99,10.0,North,12.7,16.1,N/A,,Clear,360,2014-04-22 14:35:00
9:55 AM,48.6,32.0,53,29.99,10.0,NNW,6.9,-,N/A,,Clear,340,2014-04-22 14:55:00
10:15 AM,49.5,32.2,51,29.99,10.0,North,9.2,18.4,N/A,,Clear,360,2014-04-22 15:15:00
10:35 AM,49.6,31.6,50,30.00,10.0,North,11.5,18.4,N/A,,Clear,350,2014-04-22 15:35:00
10:55 AM,50.2,31.8,49,30.00,10.0,NNW,5.8,-,N/A,,Clear,330,2014-04-22 15:55:00
11:15 AM,51.6,32.4,48,30.00,10.0,North,9.2,-,N/A,,Clear,350,2014-04-22 16:15:00
11:35 AM,51.1,30.9,46,30.00,10.0,NW,9.2,16.1,N/A,,Clear,320,2014-04-22 16:35:00
11:55 AM,52.0,32.4,47,29.99,10.0,North,10.4,-,N/A,,Clear,10,2014-04-22 16:55:00
12:15 PM,52.5,32.4,46,29.99,10.0,NW,6.9,-,N/A,,Clear,310,2014-04-22 17:15:00
12:35 PM,53.2,32.2,45,29.98,10.0,NNW,8.1,18.4,N/A,,Clear,330,2014-04-22 17:35:00
12:55 PM,54.3,32.4,43,29.98,10.0,NNW,8.1,17.3,N/A,,Clear,340,2014-04-22 17:55:00
1:15 PM,55.2,32.7,43,29.98,10.0,NNW,10.4,-,N/A,,Clear,330,2014-04-22 18:15:00
1:35 PM,55.0,31.8,41,29.97,10.0,NW,10.4,-,N/A,,Clear,320,2014-04-22 18:35:00
1:55 PM,56.1,32.7,41,29.98,10.0,NW,9.2,17.3,N/A,,Clear,310,2014-04-22 18:55:00
2:15 PM,57.2,31.3,37,29.97,10.0,NW,5.8,-,N/A,,Clear,320,2014-04-22 19:15:00
2:35 PM,57.9,29.8,34,29.97,10.0,North,12.7,20.7,N/A,,Clear,350,2014-04-22 19:35:00
2:55 PM,57.7,29.7,34,29.96,10.0,NW,11.5,18.4,N/A,,Clear,310,2014-04-22 19:55:00
3:15 PM,58.5,28.8,32,29.96,10.0,WNW,11.5,23.0,N/A,,Clear,290,2014-04-22 20:15:00
3:35 PM,58.8,28.6,32,29.96,10.0,NW,8.1,-,N/A,,Clear,320,2014-04-22 20:35:00
3:55 PM,59.0,28.8,32,29.95,10.0,NW,13.8,19.6,N/A,,Clear,320,2014-04-22 20:55:00
4:15 PM,58.8,27.3,30,29.96,10.0,NNW,9.2,18.4,N/A,,Clear,330,2014-04-22 21:15:00
4:35 PM,58.8,27.1,30,29.96,10.0,NNW,12.7,23.0,N/A,,Clear,340,2014-04-22 21:35:00
4:55 PM,58.8,27.9,31,29.96,10.0,NW,8.1,18.4,N/A,,Clear,310,2014-04-22 21:55:00
5:15 PM,59.9,27.7,29,29.96,10.0,NNW,10.4,17.3,N/A,,Clear,330,2014-04-22 22:15:00
5:35 PM,59.4,26.8,29,29.96,10.0,NNW,11.5,20.7,N/A,,Clear,340,2014-04-22 22:35:00
5:55 PM,59.2,24.8,27,29.96,10.0,North,11.5,20.7,N/A,,Clear,350,2014-04-22 22:55:00
6:15 PM,53.4,32.7,45,29.98,10.0,ENE,15.0,21.9,N/A,,Clear,70,2014-04-22 23:15:00
6:35 PM,50.9,32.4,49,29.99,10.0,ENE,12.7,-,N/A,,Clear,70,2014-04-22 23:35:00
6:55 PM,48.7,32.0,52,29.99,10.0,East,11.5,17.3,N/A,,Clear,80,2014-04-22 23:55:00
7:15 PM,46.9,31.3,55,30.00,10.0,ENE,10.4,-,N/A,,Clear,70,2014-04-23 00:15:00
7:35 PM,45.7,31.1,57,30.01,10.0,ENE,9.2,-,N/A,,Clear,60,2014-04-23 00:35:00
7:55 PM,44.8,30.2,57,30.02,10.0,ENE,10.4,19.6,N/A,,Clear,60,2014-04-23 00:55:00
8:15 PM,43.7,30.2,59,30.03,10.0,NE,9.2,17.3,N/A,,Clear,50,2014-04-23 01:15:00
8:35 PM,42.8,30.0,61,30.04,10.0,NE,11.5,16.1,N/A,,Clear,50,2014-04-23 01:35:00
8:55 PM,41.9,29.3,61,30.06,10.0,ENE,10.4,-,N/A,,Clear,60,2014-04-23 01:55:00
9:15 PM,41.5,29.3,62,30.07,10.0,ENE,9.2,-,N/A,,Clear,60,2014-04-23 02:15:00
9:35 PM,41.4,28.6,60,30.07,10.0,ENE,10.4,16.1,N/A,,Clear,60,2014-04-23 02:35:00
9:55 PM,41.0,28.4,61,30.07,10.0,ENE,9.2,-,N/A,,Clear,60,2014-04-23 02:55:00
10:15 PM,40.3,28.4,63,30.07,10.0,NE,9.2,-,N/A,,Clear,50,2014-04-23 03:15:00
10:35 PM,40.5,28.0,61,30.08,10.0,NE,8.1,-,N/A,,Clear,50,2014-04-23 03:35:00
10:55 PM,40.5,27.5,60,30.08,10.0,NE,6.9,-,N/A,,Clear,40,2014-04-23 03:55:00
11:15 PM,39.7,27.5,62,30.09,10.0,NE,4.6,-,N/A,,Clear,40,2014-04-23 04:15:00
11:35 PM,39.2,27.7,63,30.09,10.0,NE,3.5,-,N/A,,Clear,50,2014-04-23 04:35:00
11:55 PM,39.4,27.5,62,30.09,10.0,NNE,3.5,-,N/A,,Clear,30,2014-04-23 04:55:00